User: anonymous   Login
Location: Marseilles
(40.7010°N, 83.3930°W)
Time: 06:28:09
(UTC-04:00)
Language:

Cosmos 1459 Rocket - Orbit

View from above orbital plane
View from above orbital plane
View from above satellite
View from above satellite

Ground track
Ground track

The orbit data is extracted from the following two-line orbital elements,

1 14059U 83042B   16241.21094078  .00000095  00000-0  78133-4 0  9991
2 14059  82.9699 279.3804 0042798  11.6838  52.1052 13.78562227675392
Epoch (UTC): 28 August 2016 05:03:45
Eccentricity: 0.0042798
inclination: 82.9699°
perigee height: 937 km
apogee height: 1000 km
right ascension of ascending node: 279.3804°
argument of perigee: 11.6838°
revolutions per day: 13.78562227
mean anomaly at epoch: 52.1052°
orbit number at epoch: 67539

The dashed part of the orbit path shows where the satellite is in the earth's shadow,  

DLR